EW6584 Weather Reports


Display with metric or nautical units.
time (UTC)temp
F
wind
direction
speed
MPH
gust
MPH
rain 1hr
in
rain 24hr
in
rain mn
in
humidity
%
barometer
mb
20260510094533 53 8 0.0 1.0 0.00 0.00 0.00 84 1016.1
20260510093017 54 8 0.0 2.0 0.00 0.00 0.00 84 1016.0
20260510091526 54 8 0.0 0.0 0.00 0.00 0.00 83 1015.9
20260510090045 54 8 0.0 1.0 0.00 0.00 0.00 82 1015.8
20260510084553 54 8 0.0 3.0 0.00 0.00 0.00 81 1015.8
20260510083012 54 8 0.0 1.0 0.00 0.00 0.00 81 1015.7
20260510081535 54 8 0.0 0.0 0.00 0.00 0.00 81 1015.5
20260510080010 54 8 0.0 2.0 0.00 0.00 0.00 82 1015.5
20260510074524 54 8 0.0 0.0 0.00 0.00 0.00 83 1015.6
20260510073039 54 8 0.0 0.0 0.00 0.00 0.00 83 1015.5
20260510071544 55 8 0.0 0.0 0.00 0.00 0.00 82 1015.6
20260510070045 55 8 0.0 0.0 0.00 0.00 0.00 81 1015.7
20260510064542 55 8 0.0 0.0 0.00 0.00 0.00 80 1015.6
20260510063011 56 8 0.0 0.0 0.00 0.00 0.00 79 1015.7
20260510061521 56 8 0.0 1.0 0.00 0.00 0.00 78 1015.7
20260510060016 57 8 0.0 1.0 0.00 0.00 0.00 76 1015.6
20260510054525 57 8 0.0 2.0 0.00 0.00 0.00 76 1015.6
20260510053011 58 8 0.0 1.0 0.00 0.00 0.00 75 1015.6
20260510051556 58 8 0.0 3.0 0.00 0.00 0.00 75 1015.7
20260510050034 58 8 0.0 2.0 0.00 0.00 0.00 74 1015.6
20260510044542 58 8 1.0 3.0 0.00 0.00 0.00 73 1015.6
20260510043013 58 8 0.0 2.0 0.00 0.00 0.00 72 1015.5
20260510041556 59 8 1.0 3.0 0.00 0.00 0.00 71 1015.6
20260510040006 59 9 1.0 3.0 0.00 0.00 0.00 70 1015.5
20260510034600 60 10 0.0 4.0 0.00 0.00 0.00 69 1015.4
20260510034502 60 10 0.0 4.0 0.00 0.00 0.00 68 1015.4
20260510033057 60 25 1.0 3.0 0.00 0.00 0.00 67 1015.4
20260510031524 61 354 1.0 5.0 0.00 0.00 0.00 67 1015.4
20260510030043 61 332 1.0 4.0 0.00 0.00 0.00 66 1015.6
20260510024522 62 12 0.0 4.0 0.00 0.00 0.00 64 1015.6
20260510023028 63 14 1.0 8.0 0.00 0.00 0.00 63 1015.8
20260510021536 64 21 0.0 5.0 0.00 0.00 0.00 60 1015.9
20260510020048 65 14 2.0 6.0 0.00 0.00 0.00 57 1016.0
20260510014603 67 15 1.0 6.0 0.00 0.00 0.00 54 1016.1
20260510014502 67 15 2.0 6.0 0.00 0.00 0.00 53 1016.2
20260510013015 69 337 2.0 4.0 0.00 0.00 0.00 51 1016.5
20260510011528 69 58 1.0 4.0 0.00 0.00 0.00 49 1016.6
20260510010042 69 321 0.0 4.0 0.00 0.00 0.00 48 1016.7
20260510004554 68 40 2.0 5.0 0.00 0.00 0.00 50 1016.6
20260510003004 68 315 3.0 5.0 0.00 0.00 0.00 49 1017.0
20260510001521 67 66 2.0 5.0 0.00 0.00 0.00 51 1017.0
20260510000035 69 328 2.0 8.0 0.00 0.00 0.00 49 1017.3
20260509234556 68 4 1.0 6.0 0.00 0.00 0.00 52 1017.4
20260509233104 68 331 1.0 8.0 0.00 0.00 0.00 52 1017.6
20260509231508 68 343 2.0 9.0 0.00 0.00 0.00 51 1017.8
20260509230023 69 36 3.0 8.0 0.00 0.00 0.00 49 1017.9
20260509224534 69 354 2.0 8.0 0.00 0.00 0.00 54 1018.2
20260509223050 69 209 2.0 8.0 0.00 0.00 0.00 54 1018.4
20260509221504 68 286 3.0 7.0 0.00 0.00 0.00 56 1018.5
20260509220015 69 281 1.0 4.0 0.00 0.00 0.00 54 1018.6
20260509214552 68 32 1.0 5.0 0.00 0.00 0.00 55 1018.4
20260509213006 68 339 3.0 6.0 0.00 0.00 0.00 54 1018.8
20260509211519 68 354 1.0 4.0 0.00 0.00 0.00 55 1018.9
20260509210031 67 331 2.0 5.0 0.00 0.00 0.00 56 1019.0
20260509204535 66 270 3.0 7.0 0.00 0.00 0.00 56 1019.1
20260509203048 66 307 1.0 5.0 0.00 0.00 0.00 58 1019.1
20260509201604 65 64 2.0 7.0 0.00 0.00 0.00 60 1019.4
20260509200009 65 231 1.0 6.0 0.00 0.00 0.00 60 1019.5
20260509194523 65 299 2.0 4.0 0.00 0.00 0.00 59 1019.8
20260509193037 65 354 3.0 6.0 0.00 0.00 0.00 60 1020.1
20260509191544 65 316 1.0 4.0 0.00 0.00 0.00 62 1020.1
20260509190050 64 326 3.0 10.0 0.00 0.00 0.00 64 1020.3
20260509184609 63 323 1.0 6.0 0.00 0.00 0.00 66 1020.4
20260509184501 63 322 1.0 6.0 0.00 0.00 0.00 68 1020.4
20260509183011 62 280 3.0 7.0 0.00 0.00 0.00 67 1020.5
20260509181521 63 272 2.0 7.0 0.00 0.00 0.00 68 1020.5
20260509180031 61 283 3.0 7.0 0.00 0.00 0.00 73 1020.5
20260509174540 61 278 4.0 9.0 0.00 0.00 0.00 73 1020.7
20260509173105 61 270 2.0 5.0 0.00 0.00 0.00 74 1020.7
20260509171506 61 283 2.0 5.0 0.00 0.00 0.00 77 1020.8
20260509170015 59 251 1.0 5.0 0.00 0.00 0.00 80 1020.8
20260509164525 58 217 2.0 5.0 0.00 0.00 0.00 81 1021.0
20260509163033 58 218 1.0 5.0 0.00 0.00 0.00 80 1021.1
20260509161548 59 200 0.0 4.0 0.00 0.00 0.00 77 1021.2
20260509160027 59 61 1.0 4.0 0.00 0.00 0.00 77 1021.2
20260509154526 58 168 1.0 3.0 0.00 0.00 0.00 77 1021.6
20260509153036 58 79 0.0 4.0 0.00 0.00 0.00 78 1021.6
20260509151541 57 66 1.0 6.0 0.00 0.00 0.00 82 1021.5
20260509144553 55 208 1.0 2.0 0.00 0.00 0.00 87 1021.9
20260509143049 54 208 1.0 2.0 0.00 0.00 0.00 90 1021.9
20260509141553 53 214 0.0 1.0 0.00 0.00 0.00 91 1022.0
20260509140000 52 214 0.0 1.0 0.00 0.00 0.00 95 1022.0
20260509134507 50 214 1.0 2.0 0.00 0.00 0.00 95 1022.1
20260509133022 49 214 0.0 0.0 0.00 0.00 0.00 95 1022.1
20260509131533 48 213 0.0 0.0 0.00 0.00 0.00 95 1022.2
20260509130036 48 213 0.0 0.0 0.00 0.00 0.00 94 1022.2
20260509124603 48 214 0.0 0.0 0.00 0.00 0.00 94 1022.1
20260509123033 48 214 0.0 0.0 0.00 0.00 0.00 94 1022.1
20260509121551 48 214 0.0 0.0 0.00 0.00 0.00 93 1022.0
20260509120107 49 214 0.0 0.0 0.00 0.00 0.00 93 1022.2
20260509114541 49 214 0.0 0.0 0.00 0.00 0.00 93 1022.3
20260509113052 49 214 0.0 0.0 0.00 0.00 0.00 92 1022.3
20260509111509 50 214 0.0 1.0 0.00 0.00 0.00 92 1022.3
20260509110016 50 214 0.0 0.0 0.00 0.00 0.00 92 1022.4
20260509104535 50 214 0.0 0.0 0.00 0.00 0.00 91 1022.5
20260509103018 50 214 0.0 0.0 0.00 0.00 0.00 91 1022.4
20260509101519 51 214 0.0 0.0 0.00 0.00 0.00 89 1022.6
20260509100041 51 214 0.0 0.0 0.00 0.00 0.00 88 1022.6